User: anonymous   Login
Location: Unspecified
(0.0000°N, 0.0000°E)
Time: 07:17:07
(UTC+00:00)
Language:

GOMX 1 - Orbit

View from above orbital plane
View from above orbital plane
View from above satellite
View from above satellite

Ground track
Ground track

The orbit data is extracted from the following two-line orbital elements,

1 39423U 13066H   17178.94628228 +.00000078 +00000-0 +24789-4 0  9991
2 39423 097.6828 166.4277 0176957 044.8342 316.6997 14.52846987190809
Epoch (UTC): 27 June 2017 22:42:38
Eccentricity: 0.0176957
inclination: 97.6828°
perigee height: 591 km
apogee height: 842 km
right ascension of ascending node: 166.4277°
argument of perigee: 44.8342°
revolutions per day: 14.52846987
mean anomaly at epoch: 316.6997°
orbit number at epoch: 19080

The dashed part of the orbit path shows where the satellite is in the earth's shadow,  

DLR